Tracking 35055 objects as of 18-Aug-2026
HD Live streaming from Space Station
objects crossing your sky now

OBJECT H

Track OBJECT H now!
10-day predictions
OBJECT H is classified as:


NORAD ID: 66673
Int'l Code: 2025-276H
Launch date: November 28, 2025
Source: (TBD)
Launch site: AIR FORCE WESTERN TEST RANGE (AFWTR)

Uplink (MHz):
Downlink (MHz): 400.550/2208.000
Beacon (MHz):
Mode:
Call sign:
Status: Unknown

Your satellite tracking list
Your tracking list is empty




NASA's NSSDC Master Catalog

Two Line Element Set (TLE):
1 66673U 25276H   26230.16289684  .00014152  00000-0  57991-3 0  9994
2 66673  97.4121 303.2636 0007344 144.0839 216.0893 15.24363488 39885
Source of the keplerian elements: AFSPC